Andalusia, AL

7:57 AM CDT on August 23, 2017 (GMT -0500)
Andalusia

Weather History for K79J - April, 2013

Change the Weather History Date:

Saturday, April 20, 2013

  Actual Average (KCEW) Record (KCEW)
Temperature  
Mean Temperature 56 °F -  
Max Temperature 69 °F 80 °F 90 °F (2002)
Min Temperature 43 °F 53 °F 36 °F (2001)
Degree Days  
Heating Degree Days 9    
Growing Degree Days 6 (Base 50)    
Moisture  
Dew Point 39 °F    
Average Humidity 59    
Maximum Humidity 83    
Minimum Humidity 30    
Precipitation  
Precipitation 0.01 in - - ()
Sea Level Pressure  
Sea Level Pressure 30.18 in    
Wind  
Wind Speed 4 mph (NE)    
Max Wind Speed 14 mph    
Max Gust Speed 21 mph    
Visibility 10 miles    
Events      
Averages and records for this station are not official NWS values.
T = Trace of Precipitation, MM = Missing Value Source: NWS Daily Summary

Daily Weather History Graph

Daily Weather History Graph

Search for Another Location

Airport or City:

Trip Planner

Search our weather history database for the weather conditions in past years. The results will help you decide how hot, cold, wet, or windy it might be!

Date:

Astronomy

Apr. 20, 2013 Rise Set
Actual Time 6:11 AM CDT 7:17 PM CDT
Civil Twilight 5:46 AM CDT 7:42 PM CDT
Nautical Twilight 5:16 AM CDT 8:12 PM CDT
Astronomical Twilight 4:45 AM CDT 8:43 PM CDT
Moon 2:20 PM CDT (4/20) 2:39 AM CDT (4/20)
Length of Visible Light 13h 56m
Length of Day
13h 06m
Waxing Gibbous, 71% of the Moon is Illuminated
Apr 20
Waxing Gibbous
Apr 25
Full
May 2
Last Quarter
May 9
New
May 17
First Quarter

Hourly Weather History & Observations

Time (CDT) Temp. Windchill Dew Point Humidity Pressure Visibility Wind Dir Wind Speed Gust Speed Precip Events Conditions
12:56 AM 50.0 °F - 45.0 °F 83% 30.15 in 8.0 mi Calm Calm - N/A   Clear
1:56 AM 48.0 °F - 43.0 °F 83% 30.15 in 7.0 mi NNW 4.6 mph - N/A   Clear
2:56 AM 46.9 °F - 41.0 °F 80% 30.15 in 10.0 mi North 4.6 mph - 0.01 in   Clear
3:56 AM 46.0 °F 43.9 °F 39.9 °F 79% 30.15 in 10.0 mi North 4.6 mph - N/A   Clear
4:56 AM 45.0 °F 43.5 °F 37.9 °F 76% 30.16 in 10.0 mi North 3.5 mph - N/A   Clear
5:56 AM 44.1 °F - 37.9 °F 79% 30.18 in 10.0 mi Calm Calm - N/A   Clear
6:56 AM 43.0 °F - 37.9 °F 82% 30.21 in 10.0 mi Calm Calm - N/A   Clear
7:56 AM 48.0 °F - 39.9 °F 74% 30.23 in 10.0 mi NE 6.9 mph - N/A   Clear
8:56 AM 53.1 °F - 39.0 °F 59% 30.24 in 10.0 mi NE 9.2 mph - N/A   Clear
9:56 AM 57.0 °F - 37.9 °F 49% 30.24 in 10.0 mi East 9.2 mph - N/A   Clear
10:56 AM 60.1 °F - 35.1 °F 39% 30.24 in 10.0 mi NE 11.5 mph 18.4 mph N/A   Clear
11:56 AM 61.0 °F - 34.0 °F 36% 30.23 in 10.0 mi ENE 13.8 mph 20.7 mph N/A   Clear
12:56 PM 64.9 °F - 37.0 °F 36% 30.20 in 10.0 mi ENE 10.4 mph - N/A   Clear
1:56 PM 66.0 °F - 34.0 °F 30% 30.18 in 10.0 mi NE 6.9 mph - N/A   Clear
2:56 PM 66.9 °F - 35.1 °F 31% 30.16 in 10.0 mi East 5.8 mph - N/A   Clear
3:56 PM 69.1 °F - 36.0 °F 30% 30.14 in 10.0 mi North 10.4 mph - N/A   Clear
4:56 PM 68.0 °F - 37.9 °F 33% 30.14 in 10.0 mi ENE 8.1 mph - N/A   Clear
5:56 PM 68.0 °F - 37.9 °F 33% 30.13 in 10.0 mi NE 5.8 mph - N/A   Clear
6:56 PM 64.9 °F - 39.0 °F 39% 30.15 in 10.0 mi NE 4.6 mph - N/A   Clear
7:56 PM 55.9 °F - 43.0 °F 62% 30.17 in 10.0 mi Calm Calm - N/A   Clear
8:56 PM 53.1 °F - 44.1 °F 71% 30.19 in 10.0 mi Calm Calm - N/A   Clear
9:56 PM 52.0 °F - 44.1 °F 74% 30.20 in 10.0 mi Calm Calm - N/A   Clear
10:56 PM 50.0 °F - 43.0 °F 77% 30.20 in 10.0 mi Calm Calm - N/A   Clear
11:56 PM 50.0 °F - 42.1 °F 74% 30.21 in 10.0 mi Calm Calm - N/A   Clear